{"data":{"norad_id":67662,"epoch":"2026-05-25T01:46:06.293280Z","epoch_age_seconds":79090,"freshness":"FRESH","line1":"1 67662U 26022Q   26145.07368395  .00018916  00000+0  58688-3 0  9990","line2":"2 67662  97.2840 178.4073 0001540  86.2121 273.9298 15.33439414 17284","mean_motion":15.33439414,"eccentricity":0.000154,"inclination_deg":97.284,"raan_deg":178.4073,"arg_perigee_deg":86.2121,"mean_anomaly_deg":273.9298,"bstar":0.00058688,"rev_number":1728,"period_min":93.906546737555,"perigee_km":464.50586522814,"apogee_km":466.61372384086,"semimajor_km":6843.6967945345,"source":"CELESTRAK","updated_at":"2026-05-25T13:38:21.659726Z"}}